STARLINK-4060 (53267 NORAD) Tracking and Keplerian Element Data

This shows tracking and keplerian element data for the satellite.

Feedback or suggestion? Click here.




ElementValue
Catalog53267
NameSTARLINK-4060
Epoch Orbit130
Epoch Day269.91667824
Epoch Year2022
RAAN89.6901
Inclination53.2175
Eccentricity0.0001332
Argument of Perigee64.0083
Mean Anonmoly244.5807
Mean Motion15.23015396
Decay Rate-0.01121479
L11 53267U 22086AB 22269.91667824 -.01121479 00000+0 -50914-1 0 9991
L22 53267 53.2175 89.6901 0001332 64.0083 244.5807 15.23015396 1300

Live tracking and technical data element details for STARLINK-4060 (NORAD 53267). STARLINK-4060 can be tracked NOW for your location showing map with azimuth and elevation plus other details from your city location.

Track the satellite on the map from your city or location and see movement details for azimuth, elevation, latitude, longitude, range, height, and movement on the map or in text.







IsCatalogInMostPopularTable: catalog: 53267, numindb: 2
Update: records affected: 1



GetName: 53267 STARLINK-4060

Hit Count: updated at: Thu, 29 Sep 2022 11:50:18 GMT